Terminal Aerodrome Forecast
Issued by NWS

Home | Current Version | Previous Version | Graphics & Text | Print | Product List | Glossary On
Versions: 1 2 3 4 5 6 7 8 9 10 11 12 13 14 15 16 17 18 19
765
FTUS43 KOAX 221722
TAFCDR
TAF
KCDR 221722Z 2218/2318 28018G26KT P6SM BKN150
     FM222200 02010KT P6SM OVC120
     FM230300 05012KT P6SM VCSH SCT015 OVC050
     FM230600 05014KT 2SM -SN OVC010=

USA.gov is the U.S. government's official web portal to all federal, state and local government web resources and services.